User: anonymous   Login
Location: Oshawa
(43.9000°N, 78.8670°W)
Time: 09:53:28
(UTC-05:00)
Language:

CZ-4C R/B - Orbit

View from above orbital plane
View from above orbital plane
View from above satellite
View from above satellite

Ground track
Ground track

The orbit data is extracted from the following two-line orbital elements,

1 32290U 07055B   17054.86599361  .00004672  00000-0  13411-3 0  9999
2 32290  97.5245 159.0586 0068118 174.7121 185.4856 15.34053604514447
Epoch (UTC): 23 February 2017 20:47:01
Eccentricity: 0.0068118
inclination: 97.5245°
perigee height: 417 km
apogee height: 510 km
right ascension of ascending node: 159.0586°
argument of perigee: 174.7121°
revolutions per day: 15.34053604
mean anomaly at epoch: 185.4856°
orbit number at epoch: 51444

The dashed part of the orbit path shows where the satellite is in the earth's shadow,  

DLR